AAR601 RKSI-YSSY

Flight info

Callsign AAR601
Flight time N/A
Altitude 33000
Route OSPOT2H OSPOT Y782 TGU/N0481F350 Y781 BESNA Y209 IKE A582 HKC Y14 TGE G339 PAKDO/N0481F370 DCT 15N139E 1000N14030E DCT KEONE R204 KALIN/N0478F390 R204 HID DCT ONARA DCT DOLIB Y173 UBGAN Y161 OVNOM H652 BOREE
Aircraft B772/H-SDE1E2E3FGHIJ3J5M1P2RWXYZ/LB1D1

Departure

Time N/A
Airport Incheon International Airport (RKSI)

Arrival

Time 2026-05-07 11:43
Airport Sydney Kingsford Smith International Airport (YSSY)
Time Latitude Longitude Altitude Speed Heading
2026-05-07 10:57 -31.53527 150.67470 33272 ft 465 kts 174°
2026-05-07 10:58 -31.59792 150.69418 33256 ft 464 kts 174°
2026-05-07 10:58 -31.66003 150.71352 33290 ft 464 kts 174°
2026-05-07 10:59 -31.72210 150.73289 33271 ft 463 kts 174°
2026-05-07 10:59 -31.78427 150.75236 33282 ft 460 kts 174°
2026-05-07 11:00 -31.84572 150.77159 33266 ft 459 kts 174°
2026-05-07 11:00 -31.90758 150.79095 33275 ft 459 kts 174°
2026-05-07 11:01 -31.96886 150.81019 33250 ft 459 kts 174°
2026-05-07 11:01 -32.03083 150.82955 33246 ft 457 kts 175°
2026-05-07 11:02 -32.09205 150.84184 33220 ft 436 kts 181°
2026-05-07 11:02 -32.15286 150.85178 32827 ft 442 kts 181°
2026-05-07 11:03 -32.18279 150.85680 32474 ft 436 kts 180°
2026-05-07 11:03 -32.21257 150.86194 32015 ft 430 kts 179°
2026-05-07 11:03 -32.24202 150.86707 31606 ft 423 kts 179°
2026-05-07 11:03 -32.27105 150.87216 31182 ft 417 kts 179°
2026-05-07 11:04 -32.29920 150.87709 30782 ft 410 kts 179°
2026-05-07 11:04 -32.32715 150.88198 30407 ft 403 kts 179°
2026-05-07 11:04 -32.35478 150.88681 29941 ft 397 kts 179°
2026-05-07 11:04 -32.38205 150.89158 29462 ft 392 kts 179°
2026-05-07 11:05 -32.40883 150.89626 29029 ft 386 kts 179°
2026-05-07 11:05 -32.43491 150.90081 28616 ft 381 kts 179°
2026-05-07 11:05 -32.46094 150.90536 28208 ft 376 kts 179°
2026-05-07 11:05 -32.48671 150.90988 27781 ft 371 kts 179°
2026-05-07 11:06 -32.51218 150.91437 27375 ft 367 kts 179°
2026-05-07 11:06 -32.53734 150.91888 26978 ft 363 kts 179°
2026-05-07 11:06 -32.56226 150.92337 26590 ft 359 kts 179°
2026-05-07 11:06 -32.58651 150.92775 26198 ft 356 kts 179°
2026-05-07 11:07 -32.61118 150.93220 25821 ft 352 kts 179°
2026-05-07 11:07 -32.63535 150.93654 25436 ft 350 kts 180°
2026-05-07 11:07 -32.65910 150.94080 25103 ft 347 kts 180°
2026-05-07 11:07 -32.68292 150.94508 24719 ft 346 kts 180°
2026-05-07 11:08 -32.70668 150.94936 24351 ft 343 kts 180°
2026-05-07 11:08 -32.73027 150.95361 23965 ft 342 kts 180°
2026-05-07 11:08 -32.75374 150.95783 23558 ft 340 kts 180°
2026-05-07 11:08 -32.77714 150.96205 23149 ft 338 kts 180°
2026-05-07 11:09 -32.79996 150.96616 22773 ft 335 kts 180°
2026-05-07 11:09 -32.82296 150.97026 22397 ft 332 kts 180°
2026-05-07 11:09 -32.84576 150.97432 22038 ft 329 kts 180°
2026-05-07 11:09 -32.86834 150.97832 21672 ft 327 kts 180°
2026-05-07 11:10 -32.89075 150.98231 21315 ft 324 kts 180°
2026-05-07 11:10 -32.91303 150.98626 20993 ft 322 kts 180°
2026-05-07 11:10 -32.93514 150.99018 20600 ft 320 kts 180°
2026-05-07 11:10 -32.95680 150.99403 20261 ft 317 kts 180°
2026-05-07 11:11 -32.97864 150.99790 19890 ft 316 kts 180°
2026-05-07 11:11 -33.00040 151.00176 19529 ft 314 kts 180°
2026-05-07 11:11 -33.02205 151.00563 19171 ft 313 kts 180°
2026-05-07 11:11 -33.04333 151.00941 18812 ft 312 kts 180°
2026-05-07 11:12 -33.06502 151.01326 18431 ft 311 kts 180°
2026-05-07 11:12 -33.08598 151.01700 18189 ft 303 kts 180°
2026-05-07 11:12 -33.10675 151.02074 17733 ft 302 kts 179°
2026-05-07 11:12 -33.12737 151.02442 17304 ft 293 kts 179°
2026-05-07 11:13 -33.14685 151.02798 16929 ft 272 kts 179°
2026-05-07 11:13 -33.16496 151.03127 16622 ft 253 kts 179°
2026-05-07 11:13 -33.18181 151.03429 16312 ft 240 kts 180°
2026-05-07 11:13 -33.19815 151.03713 16038 ft 242 kts 180°
2026-05-07 11:14 -33.21498 151.04009 15731 ft 247 kts 179°
2026-05-07 11:14 -33.23247 151.04315 15466 ft 260 kts 179°
2026-05-07 11:14 -33.25058 151.04648 15132 ft 264 kts 178°
2026-05-07 11:14 -33.26873 151.04998 14796 ft 262 kts 178°
2026-05-07 11:15 -33.28645 151.05340 14463 ft 260 kts 177°
2026-05-07 11:15 -33.30419 151.05684 14134 ft 257 kts 178°
2026-05-07 11:15 -33.32175 151.06020 13793 ft 254 kts 177°
2026-05-07 11:15 -33.33925 151.06356 13442 ft 251 kts 177°
2026-05-07 11:16 -33.35644 151.06686 13090 ft 249 kts 177°
2026-05-07 11:16 -33.37350 151.07011 12703 ft 249 kts 177°
2026-05-07 11:16 -33.39066 151.07339 12369 ft 247 kts 176°
2026-05-07 11:16 -33.40763 151.07663 12054 ft 246 kts 176°
2026-05-07 11:17 -33.42466 151.07988 11747 ft 250 kts 176°
2026-05-07 11:17 -33.44209 151.08319 11434 ft 257 kts 176°
2026-05-07 11:17 -33.45968 151.08656 11115 ft 268 kts 175°
2026-05-07 11:17 -33.47831 151.09019 10776 ft 274 kts 175°
2026-05-07 11:18 -33.49711 151.09382 10424 ft 273 kts 175°
2026-05-07 11:18 -33.51568 151.09739 10192 ft 267 kts 175°
2026-05-07 11:18 -33.53365 151.10087 10043 ft 260 kts 175°
2026-05-07 11:18 -33.55123 151.10426 9742 ft 257 kts 175°
2026-05-07 11:19 -33.56881 151.10765 9423 ft 255 kts 175°
2026-05-07 11:19 -33.58630 151.11103 9118 ft 254 kts 175°
2026-05-07 11:19 -33.60369 151.11456 8781 ft 250 kts 171°
2026-05-07 11:19 -33.61950 151.12378 8291 ft 262 kts 143°
2026-05-07 11:20 -33.63074 151.14129 7939 ft 267 kts 126°
2026-05-07 11:20 -33.63975 151.16082 7639 ft 267 kts 123°
2026-05-07 11:20 -33.64824 151.18037 7366 ft 266 kts 123°
2026-05-07 11:20 -33.65673 151.20005 7081 ft 265 kts 123°
2026-05-07 11:21 -33.66520 151.21952 6748 ft 259 kts 126°
2026-05-07 11:21 -33.67713 151.23428 6323 ft 241 kts 158°
2026-05-07 11:21 -33.69184 151.24406 5732 ft 247 kts 146°
2026-05-07 11:21 -33.70413 151.25858 5421 ft 247 kts 141°
2026-05-07 11:22 -33.71580 151.27249 5306 ft 238 kts 142°
2026-05-07 11:22 -33.72754 151.28641 5167 ft 231 kts 142°
2026-05-07 11:22 -33.73880 151.29970 5006 ft 221 kts 146°
2026-05-07 11:22 -33.75136 151.30889 4830 ft 203 kts 163°
2026-05-07 11:23 -33.76415 151.31564 4822 ft 199 kts 163°
2026-05-07 11:23 -33.77695 151.32260 4597 ft 204 kts 162°
2026-05-07 11:23 -33.78984 151.32963 4320 ft 202 kts 163°
2026-05-07 11:23 -33.80221 151.33656 4151 ft 194 kts 163°
2026-05-07 11:24 -33.81417 151.34375 4047 ft 191 kts 163°
2026-05-07 11:24 -33.82576 151.35086 3950 ft 189 kts 163°
2026-05-07 11:24 -33.83756 151.35806 3872 ft 189 kts 162°
2026-05-07 11:24 -33.84936 151.36485 3703 ft 184 kts 169°
2026-05-07 11:25 -33.86118 151.36893 3591 ft 172 kts 174°
2026-05-07 11:25 -33.87263 151.37259 3388 ft 166 kts 176°
2026-05-07 11:25 -33.88322 151.37214 3206 ft 147 kts 204°
2026-05-07 11:25 -33.89228 151.36688 3120 ft 146 kts 214°
2026-05-07 11:26 -33.89874 151.35786 2949 ft 153 kts 248°
2026-05-07 11:26 -33.90072 151.34524 2779 ft 148 kts 248°
2026-05-07 11:26 -33.90350 151.33359 2574 ft 142 kts 247°
2026-05-07 11:26 -33.90619 151.32252 2402 ft 130 kts 247°
2026-05-07 11:27 -33.90857 151.31243 2193 ft 119 kts 248°
2026-05-07 11:27 -33.91069 151.30339 2056 ft 107 kts 249°
2026-05-07 11:27 -33.91264 151.29515 1924 ft 101 kts 249°
2026-05-07 11:27 -33.91459 151.28689 1786 ft 100 kts 249°
2026-05-07 11:28 -33.91651 151.27884 1648 ft 102 kts 249°
2026-05-07 11:28 -33.91853 151.27036 1502 ft 108 kts 250°
2026-05-07 11:28 -33.92055 151.26174 1349 ft 108 kts 250°
2026-05-07 11:28 -33.92260 151.25314 1190 ft 108 kts 251°
2026-05-07 11:29 -33.92474 151.24424 1067 ft 113 kts 252°
2026-05-07 11:29 -33.92677 151.23543 901 ft 110 kts 253°
2026-05-07 11:29 -33.92891 151.22661 691 ft 108 kts 249°
2026-05-07 11:29 -33.93122 151.21788 599 ft 114 kts 259°
2026-05-07 11:30 -33.93313 151.20849 470 ft 114 kts 256°
2026-05-07 11:30 -33.93528 151.19903 265 ft 120 kts 255°
2026-05-07 11:30 -33.93768 151.18994 121 ft 113 kts 259°
2026-05-07 11:30 -33.93949 151.18112 84 ft 112 kts 256°
2026-05-07 11:31 -33.94181 151.17216 409 ft 113 kts 252°
2026-05-07 11:31 -33.94438 151.16258 1026 ft 115 kts 254°
2026-05-07 11:31 -33.94609 151.15258 1847 ft 122 kts 251°
2026-05-07 11:31 -33.94824 151.14264 2652 ft 126 kts 247°
2026-05-07 11:32 -33.95326 151.12027 3734 ft 154 kts 248°
2026-05-07 11:32 -33.95627 151.10705 3962 ft 173 kts 247°
2026-05-07 11:32 -33.96217 151.09459 4277 ft 173 kts 216°
2026-05-07 11:33 -33.97371 151.09020 4715 ft 182 kts 180°
2026-05-07 11:33 -33.98585 151.09448 4920 ft 193 kts 160°
2026-05-07 11:33 -33.99619 151.10611 4992 ft 221 kts 128°
2026-05-07 11:33 -33.99949 151.11645 5028 ft 236 kts 109°
2026-05-07 11:34 -34.00021 151.13595 5116 ft 248 kts 95°
2026-05-07 11:34 -33.99946 151.15687 5282 ft 250 kts 94°
2026-05-07 11:34 -33.99853 151.17792 5521 ft 251 kts 93°
2026-05-07 11:34 -33.99749 151.19897 5760 ft 251 kts 93°
2026-05-07 11:35 -33.99644 151.22007 5935 ft 253 kts 92°
2026-05-07 11:35 -33.99542 151.24110 5990 ft 253 kts 93°
2026-05-07 11:35 -33.99438 151.26224 6020 ft 253 kts 93°
2026-05-07 11:35 -33.99337 151.28339 5918 ft 247 kts 93°
2026-05-07 11:36 -33.99233 151.30371 5759 ft 239 kts 93°
2026-05-07 11:36 -33.99125 151.32343 5563 ft 232 kts 93°
2026-05-07 11:36 -33.99003 151.34264 5316 ft 229 kts 90°
2026-05-07 11:36 -33.98496 151.36135 4827 ft 244 kts 72°
2026-05-07 11:37 -33.97604 151.37855 4514 ft 245 kts 46°
2026-05-07 11:37 -33.96134 151.38870 4122 ft 245 kts
2026-05-07 11:37 -33.94492 151.38948 3883 ft 230 kts 347°
2026-05-07 11:37 -33.92914 151.38796 3649 ft 226 kts 347°
2026-05-07 11:38 -33.91444 151.38409 3367 ft 207 kts 321°
2026-05-07 11:38 -33.90540 151.37286 3139 ft 172 kts 279°
2026-05-07 11:38 -33.90416 151.35985 2971 ft 156 kts 261°
2026-05-07 11:38 -33.90413 151.34651 2779 ft 158 kts 257°
2026-05-07 11:39 -33.90555 151.33358 2554 ft 153 kts 252°
2026-05-07 11:39 -33.90720 151.32138 2382 ft 139 kts 252°
2026-05-07 11:39 -33.90919 151.31061 2158 ft 124 kts 249°
2026-05-07 11:39 -33.91131 151.30106 2021 ft 115 kts 249°
2026-05-07 11:40 -33.91337 151.29215 1869 ft 107 kts 250°
2026-05-07 11:40 -33.91528 151.28400 1739 ft 98 kts 249°
2026-05-07 11:40 -33.91725 151.27575 1599 ft 107 kts 250°
2026-05-07 11:40 -33.91931 151.26700 1438 ft 108 kts 250°
2026-05-07 11:41 -33.92133 151.25850 1298 ft 104 kts 251°
2026-05-07 11:41 -33.92261 151.25303 1193 ft 106 kts 251°
2026-05-07 11:41 -33.92470 151.24423 1054 ft 113 kts 252°
2026-05-07 11:41 -33.92687 151.23504 880 ft 114 kts 253°
2026-05-07 11:42 -33.92984 151.22326 682 ft 104 kts 255°
2026-05-07 11:42 -33.93133 151.21756 596 ft 107 kts 257°
2026-05-07 11:42 -33.93315 151.20867 438 ft 112 kts 257°
2026-05-07 11:42 -33.93543 151.19945 286 ft 119 kts 258°
2026-05-07 11:43 -33.93763 151.19046 57 ft 102 kts 256°
2026-05-07 11:43 -33.93904 151.18337 34 ft 66 kts 255°
2026-05-07 11:43 -33.93984 151.17992 33 ft 34 kts 252°
2026-05-07 11:43 -33.94042 151.17750 33 ft 30 kts 255°
2026-05-07 11:44 -33.94097 151.17508 31 ft 30 kts 255°
2026-05-07 11:44 -33.94155 151.17272 33 ft 30 kts 255°
2026-05-07 11:44 -33.94214 151.17026 32 ft 30 kts 253°
2026-05-07 11:44 -33.94202 151.16871 33 ft 15 kts 317°
2026-05-07 11:45 -33.94183 151.16858 33 ft 0 kts 339°
2026-05-07 11:45 -33.94156 151.16845 34 ft 7 kts 338°
2026-05-07 11:46 -33.94104 151.16819 34 ft 11 kts 334°
2026-05-07 11:46 -33.94087 151.16728 34 ft 16 kts 262°
2026-05-07 11:46 -33.94116 151.16604 34 ft 16 kts 253°
2026-05-07 11:46 -33.94146 151.16481 34 ft 16 kts 254°
2026-05-07 11:47 -33.94168 151.16356 34 ft 15 kts 278°
2026-05-07 11:47 -33.94088 151.16280 34 ft 16 kts 353°
2026-05-07 11:47 -33.93974 151.16296 35 ft 18 kts
2026-05-07 11:47 -33.93917 151.16356 35 ft 8 kts 105°
2026-05-07 11:48 -33.93939 151.16384 34 ft 4 kts 131°
2026-05-07 11:48 -33.93950 151.16402 35 ft 2 kts 127°
2026-05-07 11:48 -33.93954 151.16409 35 ft 0 kts 126°
2026-05-07 11:48 -33.93955 151.16410 35 ft 0 kts 126°
2026-05-07 11:49 -33.93956 151.16411 35 ft 0 kts 126°